1517364000.86,27481,7.63,73250.3,-13.15,-37.21,-37.27,0,*68
1517364002.13,27482,7.63,73256.5,-13.15,-37.63,-37.63,0,*6D
1517364003.37,27483,7.63,73258.5,-13.15,-37.75,-37.81,0,*67
1517364004.65,27484,7.63,73258.8,-13.19,-37.63,-37.63,0,*67
1517364005.91,27485,7.69,73260.5,-13.19,-37.51,-37.69,0,*6D
1517364007.15,27486,7.63,73254.8,-13.15,-37.45,-37.39,0,*62
1517364008.36,27487,7.63,73246.0,-13.15,-37.45,-37.45,0,*68
1517364009.58,27488,7.63,73258.0,-13.15,-37.45,-37.45,0,*67
1517364010.8,27489,7.63,73254.5,-13.15,-36.97,-36.97,0,*66
1517364012.05,27490,7.63,73262.3,-13.15,-37.21,-37.15,0,*69
1517364013.26,27491,7.63,73272.5,-13.15,-37.45,-37.45,0,*6F
1517364014.5,27492,7.63,73244.5,-13.15,-37.27,-37.39,0,*63
1517364015.75,27493,7.63,73254.0,-13.15,-37.27,-37.39,0,*62
1517364016.99,27494,7.63,73256.5,-13.15,-37.57,-37.39,0,*62
1517364018.23,27495,7.63,73254.8,-13.15,-37.63,-37.45,0,*6F
1517364019.45,27496,7.63,73256.8,-13.15,-37.57,-37.57,0,*68
1517364020.66,27497,7.63,73256.5,-13.15,-37.57,-37.57,0,*69
1517364021.94,27498,7.63,73260.0,-13.15,-37.63,-37.63,0,*66
1517364023.21,27499,7.63,73262.3,-13.15,-37.63,-37.63,0,*67
1517364024.49,27500,7.63,73266.0,-13.19,-37.81,-37.81,0,*6A
1517364025.73,27501,7.63,73276.8,-13.15,-37.57,-37.39,0,*6F
1517364026.97,27502,7.63,73274.8,-13.19,-37.51,-37.33,0,*6C
1517364028.19,27503,7.63,73268.3,-13.15,-36.97,-36.97,0,*65
1517364029.44,27504,7.63,73256.8,-13.15,-36.49,-36.43,0,*68
1517364030.7,27505,7.63,73240.5,-13.15,-36.79,-36.79,0,*63
1517364031.94,27506,7.63,73194.0,-13.15,-36.49,-36.43,0,*6A
1517364033.22,27507,7.63,73202.3,-13.13,-37.21,-37.15,0,*60
1517364034.47,27508,7.63,73190.8,-13.15,-37.21,-37.27,0,*68
1517364035.74,27509,7.63,73202.0,-13.13,-37.15,-37.21,0,*6E
1517364036.95,27510,7.63,73232.8,-13.15,-37.27,-37.27,0,*67
1517364038.23,27511,7.63,73234.5,-13.15,-37.21,-37.21,0,*66
1517364039.47,27512,7.63,73214.5,-13.15,-37.27,-37.21,0,*63
1517364040.75,27513,7.63,73220.5,-13.15,-37.21,-37.21,0,*64
1517364041.99,27514,7.63,73246.8,-13.13,-37.15,-37.03,0,*62
1517364043.23,27515,7.63,73262.8,-13.13,-37.27,-37.27,0,*64
1517364044.53,27516,7.63,73278.3,-13.13,-37.21,-37.39,0,*6E
1517364045.78,27517,7.63,73264.5,-13.15,-37.15,-37.21,0,*67
1517364047.02,27518,7.63,73248.0,-13.15,-37.15,-37.21,0,*68
1517364048.29,27519,7.63,73236.8,-13.13,-37.57,-37.39,0,*60
1517364049.53,27520,7.63,73222.0,-13.13,-37.57,-37.45,0,*61
1517364050.75,27521,7.63,73226.0,-13.15,-37.75,-37.57,0,*65
1517364052.04,27522,7.63,73208.3,-13.13,-37.63,-37.39,0,*6F
1517364053.29,27523,7.63,73220.5,-13.15,-37.27,-37.39,0,*68
1517364054.53,27524,7.63,73224.5,-13.15,-37.15,-37.21,0,*67
1517364055.8,27525,7.63,73238.5,-13.13,-37.39,-37.27,0,*68
1517364057.1,27526,7.63,73244.0,-13.13,-37.39,-37.21,0,*6D
1517364058.34,27527,7.63,73246.0,-13.13,-37.27,-37.27,0,*65
1517364059.61,27528,7.63,73246.0,-13.13,-37.27,-37.39,0,*65
1517364060.84,27529,7.63,73246.0,-13.13,-37.45,-37.45,0,*6B
1517364062.14,27530,7.63,73234.8,-13.13,-37.39,-37.39,0,*63
1517364063.41,27531,7.63,73252.8,-13.13,-37.39,-37.27,0,*6D
1517364064.68,27532,7.63,73250.3,-13.13,-37.27,-37.21,0,*67
1517364065.95,27533,7.63,73262.0,-13.13,-37.57,-37.39,0,*68
1517364067.22,27534,7.63,73226.3,-13.13,-37.21,-37.15,0,*60
1517364068.47,27535,7.63,73238.0,-13.13,-37.03,-37.03,0,*66
1517364069.72,27536,7.63,73240.0,-13.11,-36.97,-37.09,0,*61
1517364070.96,27537,7.63,73242.5,-13.11,-37.33,-37.39,0,*6C
1517364072.27,27538,7.63,73248.5,-13.13,-37.21,-37.21,0,*6B
1517364073.51,27539,7.63,73246.0,-13.13,-37.15,-37.15,0,*6A
1517364074.79,27540,7.63,73246.0,-13.11,-37.39,-37.51,0,*68
1517364076.06,27541,7.63,73254.5,-13.11,-37.51,-37.39,0,*69
1517364077.28,27542,7.63,73248.5,-13.11,-37.57,-37.57,0,*64
1517364078.52,27543,7.63,73250.0,-13.13,-37.57,-37.45,0,*64
1517364079.73,27544,7.63,73244.0,-13.15,-37.57,-37.57,0,*66
1517364080.97,27545,7.63,73256.5,-13.13,-37.57,-37.45,0,*62
1517364082.21,27546,7.63,73260.5,-13.13,-37.57,-37.57,0,*62
1517364083.48,27547,7.63,73262.3,-13.13,-37.63,-37.45,0,*67
1517364084.71,27548,7.63,73260.3,-13.13,-37.57,-37.45,0,*6F
1517364085.95,27549,7.63,73264.5,-13.13,-37.57,-37.57,0,*6D
1517364087.2,27550,7.63,73264.8,-13.13,-37.15,-37.15,0,*65
1517364088.47,27551,7.63,73264.0,-13.13,-37.45,-37.39,0,*6F
1517364089.74,27552,7.63,73260.5,-13.11,-36.79,-36.79,0,*65
1517364090.99,27553,7.63,73254.5,-13.11,-37.21,-37.15,0,*63
1517364092.23,27554,7.63,73258.3,-13.13,-37.57,-37.45,0,*62
1517364093.47,27555,7.63,73260.5,-13.13,-37.57,-37.57,0,*60
1517364094.74,27556,7.63,73252.8,-13.13,-37.27,-37.21,0,*65
1517364095.98,27557,7.63,73254.5,-13.13,-37.27,-37.27,0,*62
1517364097.22,27558,7.63,73254.5,-13.13,-37.45,-37.45,0,*6D
1517364098.49,27559,7.63,73252.8,-13.13,-37.45,-37.39,0,*67
1517364099.72,27560,7.63,73254.5,-13.13,-37.57,-37.45,0,*65
1517364100.99,27561,7.63,73258.8,-13.13,-37.45,-37.39,0,*6C
1517364102.29,27562,7.63,73262.5,-13.13,-37.63,-37.63,0,*64
1517364103.54,27563,7.63,73262.0,-13.15,-37.63,-37.57,0,*64
1517364104.81,27564,7.63,73264.0,-13.13,-37.75,-37.63,0,*65
1517364106.05,27565,7.63,73270.5,-13.13,-37.75,-37.75,0,*63
1517364107.3,27566,7.63,73268.0,-13.15,-37.63,-37.57,0,*61
1517364108.54,27567,7.63,73272.0,-13.15,-37.39,-37.27,0,*68
1517364109.78,27568,7.63,73274.3,-13.15,-37.27,-37.21,0,*6E
1517364111.0,27569,7.63,73274.0,-13.15,-37.27,-37.27,0,*69
1517364112.27,27570,7.63,73268.0,-13.13,-36.79,-36.67,0,*68
1517364113.51,27571,7.63,73264.3,-13.13,-36.85,-36.97,0,*65
1517364114.81,27572,7.63,73266.0,-13.13,-37.21,-37.21,0,*65
1517364116.06,27573,7.63,73272.3,-13.13,-37.03,-37.03,0,*64
1517364117.27,27574,7.63,73274.0,-13.15,-37.03,-36.97,0,*69
1517364118.49,27575,7.63,73274.8,-13.11,-37.15,-36.97,0,*6B
1517364119.71,27576,7.63,73280.0,-13.07,-36.85,-36.73,0,*6D
1517364120.94,27577,7.63,73282.8,-13.11,-36.73,-36.73,0,*62
1517364122.18,27578,7.63,73284.3,-13.11,-36.43,-36.37,0,*6E
1517364123.41,27579,7.63,73278.8,-13.07,-35.77,-35.77,0,*6B
1517364124.63,27580,7.63,73266.3,-13.07,-35.77,-35.77,0,*6D
1517364125.84,27581,7.63,73238.3,-13.07,-36.31,-36.19,0,*66
1517364127.09,27582,7.63,73234.3,-13.03,-37.27,-37.21,0,*6D
1517364128.36,27583,7.63,73222.8,-13.03,-37.39,-37.39,0,*6A
1517364129.6,27584,7.63,73232.3,-13.03,-37.45,-37.39,0,*66
1517364130.88,27585,7.63,73230.5,-13.03,-37.21,-37.21,0,*6C
1517364132.14,27586,7.63,73240.0,-13.01,-37.27,-37.21,0,*6B
1517364133.39,27587,7.63,73246.5,-13.03,-37.27,-37.21,0,*68
1517364134.65,27588,7.63,73270.0,-13.01,-37.27,-37.09,0,*6F
1517364135.89,27589,7.63,73258.0,-13.03,-36.79,-36.85,0,*63
1517364137.11,27590,7.63,73244.0,-13.03,-36.85,-36.85,0,*68
1517364138.33,27591,7.63,73242.0,-13.03,-36.97,-36.97,0,*69
1517364139.6,27592,7.63,73212.0,-13.03,-37.21,-37.09,0,*60
1517364140.87,27593,7.63,73190.0,-13.03,-37.39,-37.21,0,*62
1517364142.11,27594,7.63,73174.8,-13.01,-37.27,-37.03,0,*68
1517364143.35,27595,7.63,73188.3,-13.03,-37.39,-37.27,0,*62
1517364144.58,27596,7.63,73202.0,-13.01,-37.57,-37.45,0,*6F
1517364145.85,27597,7.63,73270.5,-13.03,-37.39,-37.21,0,*66
1517364147.1,27598,7.63,73224.5,-13.03,-37.09,-37.03,0,*6A
1517364148.36,27599,7.63,73232.8,-13.01,-37.27,-37.21,0,*65
1517364149.66,27600,7.63,73252.3,-13.01,-37.39,-37.21,0,*69
1517364150.92,27601,7.63,73218.0,-13.01,-37.27,-37.09,0,*6D
1517364152.19,27602,7.63,73212.0,-13.03,-37.09,-37.09,0,*60
1517364153.46,27603,7.63,73232.8,-13.03,-37.39,-37.21,0,*68
1517364154.71,27604,7.63,73252.5,-13.03,-37.27,-37.21,0,*60
1517364155.95,27605,7.63,73258.8,-13.03,-37.27,-37.09,0,*6B
1517364157.19,27606,7.63,73244.5,-13.03,-37.09,-36.97,0,*62
1517364158.41,27607,7.63,73242.8,-13.03,-36.97,-36.85,0,*66
1517364159.65,27608,7.63,73250.0,-13.01,-37.03,-36.97,0,*64
1517364160.92,27609,7.63,73248.8,-13.03,-37.21,-37.09,0,*61
1517364162.16,27610,7.63,73218.5,-13.01,-37.03,-37.03,0,*61
1517364163.41,27611,7.63,73218.3,-13.03,-37.09,-37.03,0,*68
1517364164.65,27612,7.63,73238.8,-13.03,-37.45,-37.39,0,*6A
1517364165.92,27613,7.63,73236.8,-13.03,-37.39,-37.21,0,*69
1517364167.14,27614,7.63,73174.8,-13.03,-36.85,-36.85,0,*67
1517364168.38,27615,7.63,73210.8,-13.03,-37.09,-37.03,0,*6C
1517364169.65,27616,7.63,73216.8,-13.01,-37.09,-37.03,0,*6D
1517364170.89,27617,7.63,73248.8,-13.01,-36.97,-36.85,0,*65
1517364172.15,27618,7.63,73260.0,-13.03,-36.61,-36.49,0,*61
1517364173.42,27619,7.63,73208.5,-13.01,-36.85,-36.79,0,*6B
1517364174.71,27620,7.63,73196.5,-12.99,-37.39,-37.21,0,*6B
1517364175.98,27621,7.63,73212.0,-13.01,-37.27,-37.21,0,*65
1517364177.27,27622,7.63,73212.3,-13.01,-37.09,-37.09,0,*60
1517364178.51,27623,7.63,73200.5,-13.01,-37.57,-37.27,0,*66
1517364179.78,27624,7.63,73254.3,-13.01,-37.27,-37.09,0,*6A
1517364181.04,27625,7.63,73240.0,-13.01,-37.09,-37.03,0,*6D
1517364182.31,27626,7.63,73240.3,-13.01,-37.09,-36.97,0,*62
1517364183.58,27627,7.63,73224.5,-13.01,-37.09,-37.03,0,*6F
1517364184.82,27628,7.63,73228.3,-13.01,-37.03,-36.97,0,*66
1517364186.12,27629,7.63,73226.0,-13.01,-37.21,-37.09,0,*61
1517364187.38,27630,7.63,73228.0,-13.01,-37.27,-37.09,0,*6F
1517364188.65,27631,7.63,73224.5,-13.01,-37.09,-37.03,0,*68
1517364189.89,27632,7.63,73228.8,-13.03,-37.27,-37.21,0,*65
1517364191.13,27633,7.63,73230.0,-13.01,-36.85,-36.85,0,*60
1517364192.4,27634,7.63,73238.3,-13.01,-36.85,-36.79,0,*64
1517364193.69,27635,7.63,73236.0,-13.01,-36.49,-36.25,0,*6C
1517364194.94,27636,7.63,73242.0,-13.01,-36.67,-36.67,0,*65
1517364196.18,27637,7.63,73246.8,-13.01,-37.03,-36.97,0,*68
1517364197.42,27638,7.63,73242.3,-13.01,-37.27,-37.03,0,*6D
1517364198.7,27639,7.63,73240.5,-12.99,-37.21,-37.03,0,*6A
1517364199.99,27640,7.63,73246.3,-12.99,-37.21,-37.09,0,*6E
1517364201.26,27641,7.63,73240.8,-13.01,-37.27,-37.09,0,*69
1517364202.56,27642,7.63,73248.8,-12.99,-37.39,-37.21,0,*6F
1517364203.77,27643,7.63,73248.0,-13.03,-37.45,-37.27,0,*61
1517364205.01,27644,7.63,73246.5,-13.01,-37.27,-37.03,0,*66
1517364206.31,27645,7.63,73252.5,-13.01,-37.21,-37.09,0,*6B
1517364207.54,27646,7.63,73252.8,-13.01,-37.03,-36.85,0,*6D
1517364208.84,27647,7.63,73248.0,-12.99,-37.09,-37.09,0,*63
1517364210.11,27648,7.63,73246.5,-12.99,-37.27,-37.09,0,*60
1517364211.37,27649,7.63,73250.0,-12.99,-37.39,-37.27,0,*62
1517364212.63,27650,7.63,73248.5,-13.01,-37.39,-37.27,0,*6A
1517364213.87,27651,7.63,73250.0,-13.01,-37.45,-37.27,0,*60
1517364215.08,27652,7.63,73250.0,-13.03,-37.57,-37.45,0,*66
1517364216.35,27653,7.63,73250.3,-13.01,-37.57,-37.39,0,*6E
1517364217.58,27654,7.63,73252.8,-13.01,-37.45,-37.27,0,*65
1517364218.83,27655,7.63,73252.3,-13.03,-37.45,-37.39,0,*69
1517364220.08,27656,7.63,73252.8,-13.03,-37.21,-37.03,0,*61
1517364221.32,27657,7.63,73258.3,-13.03,-37.21,-37.03,0,*60
1517364222.62,27658,7.63,73258.0,-13.01,-37.21,-37.09,0,*67
1517364223.87,27659,7.63,73258.5,-13.03,-37.09,-37.03,0,*64
1517364225.13,27660,7.63,73258.5,-13.03,-37.39,-37.21,0,*6D
1517364226.35,27661,7.63,73260.5,-13.03,-37.45,-37.27,0,*61
1517364227.59,27662,7.63,73262.0,-13.03,-37.45,-37.39,0,*6D
1517364228.8,27663,7.63,73264.3,-13.03,-37.57,-37.27,0,*60
1517364230.07,27664,7.63,73264.5,-13.01,-37.27,-37.09,0,*6E
1517364231.36,27665,7.63,73260.5,-13.01,-37.39,-37.21,0,*6A
1517364232.61,27666,7.63,73264.0,-13.03,-37.27,-37.09,0,*6E
1517364233.82,27667,7.63,73266.0,-13.07,-37.45,-37.33,0,*66
1517364235.05,27668,7.63,73270.8,-13.07,-37.63,-37.33,0,*6D
1517364236.29,27669,7.63,73264.5,-13.07,-37.27,-37.09,0,*65
1517364237.57,27670,7.63,73264.3,-13.03,-37.21,-37.09,0,*6F
1517364238.81,27671,7.63,73264.5,-13.03,-37.27,-37.21,0,*62
1517364240.02,27672,7.63,73266.3,-13.07,-37.33,-37.27,0,*66
1517364241.26,27673,7.63,73266.3,-13.07,-37.27,-37.09,0,*6E
1517364242.47,27674,7.63,73264.8,-13.07,-37.45,-37.27,0,*61
1517364243.72,27675,7.63,73266.0,-13.03,-37.21,-37.03,0,*60
1517364244.96,27676,7.63,73262.8,-13.03,-37.39,-37.27,0,*6C
1517364246.22,27677,7.63,73260.0,-13.07,-37.09,-36.91,0,*66
1517364247.46,27678,7.63,73264.0,-13.07,-37.09,-37.03,0,*63
1517364248.7,27679,7.63,73262.5,-13.03,-36.61,-36.43,0,*6C
1517364249.92,27680,7.63,73264.8,-13.03,-36.85,-36.85,0,*6A
1517364251.14,27681,7.63,73260.5,-13.03,-36.97,-36.97,0,*6B
1517364252.41,27682,7.63,73262.0,-13.03,-37.39,-37.09,0,*6B
1517364253.66,27683,7.63,73264.3,-13.03,-37.21,-37.03,0,*69
1517364254.9,27684,7.63,73264.5,-13.03,-37.21,-37.03,0,*6E
1517364256.12,27685,7.63,73262.5,-13.03,-37.03,-36.97,0,*63
1517364257.37,27686,7.63,73256.3,-13.03,-37.21,-36.97,0,*60
1517364258.61,27687,7.63,73254.8,-13.01,-36.97,-36.85,0,*6C
1517364259.87,27688,7.63,73258.0,-13.01,-37.09,-37.03,0,*6A
1517364261.09,27689,7.63,73248.3,-13.03,-37.03,-36.97,0,*6F
1517364262.31,27690,7.63,73254.5,-13.03,-37.27,-37.03,0,*6D
1517364263.55,27691,7.63,73252.8,-13.07,-36.91,-36.85,0,*6B
1517364264.76,27692,7.63,73250.0,-13.03,-36.97,-36.85,0,*6A
1517364266.0,27693,7.63,73252.3,-13.03,-37.45,-37.09,0,*60
1517364267.24,27694,7.63,73252.0,-13.03,-37.39,-37.27,0,*60
1517364268.46,27695,7.63,73250.5,-13.07,-37.15,-37.15,0,*6A
1517364269.7,27696,7.63,73250.3,-13.03,-37.27,-37.09,0,*61
1517364270.92,27697,7.63,73250.5,-13.03,-37.03,-36.85,0,*63
1517364272.15,27698,7.63,73248.0,-13.03,-37.03,-36.79,0,*6F
1517364273.37,27699,7.63,73248.3,-13.03,-37.03,-36.85,0,*6D
1517364274.59,27700,7.63,73244.8,-13.03,-37.03,-36.97,0,*6F
1517364275.86,27701,7.63,73242.0,-13.03,-37.21,-37.09,0,*68
1517364277.08,27702,7.63,73238.0,-13.03,-37.03,-37.03,0,*61
1517364278.3,27703,7.63,73236.5,-13.03,-36.85,-36.67,0,*6C
1517364279.54,27704,7.63,73236.8,-13.03,-37.09,-36.85,0,*62
1517364280.76,27705,7.63,73236.3,-13.03,-36.97,-36.85,0,*65
1517364282.0,27706,7.63,73238.3,-13.03,-37.09,-36.97,0,*63
1517364283.3,27707,7.63,73240.3,-13.01,-37.21,-37.09,0,*6C
1517364284.57,27708,7.63,73226.8,-13.03,-37.21,-37.09,0,*61
1517364285.82,27709,7.63,73230.8,-13.03,-36.67,-36.61,0,*6C
1517364287.03,27710,7.63,73234.5,-13.03,-36.97,-36.85,0,*61
1517364288.28,27711,7.63,73230.0,-13.03,-37.09,-36.97,0,*65
1517364289.52,27712,7.63,73228.8,-13.03,-37.39,-36.97,0,*65
1517364290.76,27713,7.63,73230.0,-13.01,-37.27,-37.03,0,*65
1517364292.03,27714,7.63,73230.3,-13.01,-37.21,-36.97,0,*68
1517364293.28,27715,7.63,73224.5,-13.03,-37.21,-37.03,0,*67
1517364294.52,27716,7.63,73226.8,-13.03,-37.21,-36.85,0,*6B
1517364295.77,27717,7.63,73228.8,-13.03,-37.21,-36.97,0,*69
1517364297.04,27718,7.63,73222.8,-13.03,-37.39,-37.09,0,*69
1517364298.28,27719,7.63,73226.0,-13.03,-37.45,-37.21,0,*69
1517364299.51,27720,7.63,73222.5,-13.07,-37.51,-37.27,0,*64
1517364300.75,27721,7.63,73224.3,-13.07,-37.51,-37.27,0,*65
1517364301.97,27722,7.63,73224.5,-13.07,-37.33,-37.15,0,*63
1517364303.2,27723,7.63,73220.8,-13.07,-37.27,-37.09,0,*6A
1517364304.44,27724,7.63,73226.8,-13.07,-37.33,-37.09,0,*68
1517364305.68,27725,7.63,73224.0,-13.07,-37.33,-37.09,0,*69
1517364306.95,27726,7.63,73230.8,-13.11,-37.51,-37.21,0,*63
1517364308.16,27727,7.63,73224.3,-13.07,-37.45,-37.27,0,*66
1517364309.38,27728,7.63,73226.0,-13.07,-37.33,-37.15,0,*69
1517364310.59,27729,7.63,73226.3,-13.07,-37.03,-36.85,0,*63
1517364311.8,27730,7.63,73234.0,-13.07,-37.27,-37.03,0,*62
1517364313.07,27731,7.63,73228.0,-13.03,-37.39,-37.09,0,*62
1517364314.28,27732,7.63,73234.3,-13.07,-37.45,-37.33,0,*67
1517364315.52,27733,7.63,73238.3,-13.07,-37.33,-37.09,0,*6E
1517364316.76,27734,7.63,73232.5,-13.07,-37.15,-37.09,0,*6D
1517364318.03,27735,7.63,73230.5,-13.11,-37.21,-37.09,0,*6C
1517364319.28,27736,7.63,73230.5,-13.07,-37.09,-37.03,0,*68
1517364320.55,27737,7.63,73228.8,-13.11,-37.21,-37.09,0,*6E
1517364321.77,27738,7.63,73236.8,-13.07,-37.33,-37.15,0,*68
1517364322.98,27739,7.63,73238.5,-13.07,-37.33,-37.15,0,*69
1517364324.2,27740,7.63,73232.8,-13.11,-37.33,-37.15,0,*60
1517364325.42,27741,7.63,73234.5,-13.07,-37.33,-37.15,0,*66
1517364326.63,27742,7.63,73236.0,-13.07,-37.27,-37.33,0,*64
1517364327.84,27743,7.63,73234.0,-13.07,-37.27,-37.03,0,*66
1517364329.1,27744,7.63,73234.0,-13.11,-37.21,-36.97,0,*6C
1517364330.31,27745,7.63,73228.5,-13.07,-37.15,-37.03,0,*61
1517364331.59,27746,7.63,73228.0,-13.11,-37.21,-37.09,0,*68
1517364332.83,27747,7.63,73230.8,-13.11,-37.33,-37.09,0,*6A
1517364334.07,27748,7.63,73230.5,-13.07,-37.09,-36.85,0,*6E
1517364335.34,27749,7.63,73230.5,-13.11,-37.09,-36.79,0,*6B
1517364336.56,27750,7.63,73236.5,-13.11,-37.03,-36.85,0,*6A
1517364337.79,27751,7.63,73232.8,-13.11,-36.73,-36.55,0,*60
1517364339.02,27752,7.63,73226.0,-13.07,-37.09,-36.85,0,*65
1517364340.29,27753,7.63,73224.0,-13.07,-37.09,-36.91,0,*61
1517364341.53,27754,7.63,73228.0,-13.07,-37.03,-36.91,0,*6C
1517364342.8,27755,7.63,73230.5,-13.11,-37.21,-37.09,0,*6A
1517364344.04,27756,7.63,73228.0,-13.07,-37.15,-36.91,0,*69
1517364345.26,27757,7.63,73232.3,-13.07,-37.27,-37.03,0,*63
1517364346.49,27758,7.63,73230.0,-13.07,-37.03,-36.91,0,*60
1517364347.74,27759,7.63,73232.3,-13.11,-37.27,-36.91,0,*60
1517364348.99,27760,7.63,73230.8,-13.11,-36.91,-36.73,0,*6A
1517364350.26,27761,7.63,73228.5,-13.11,-37.21,-37.09,0,*6D
1517364351.51,27762,7.63,73234.5,-13.07,-37.09,-37.03,0,*69
1517364352.75,27763,7.63,73232.8,-13.11,-37.33,-37.09,0,*6C
1517364353.99,27764,7.63,73240.5,-13.07,-37.15,-37.09,0,*68
1517364355.21,27765,7.63,73238.5,-13.11,-37.33,-37.15,0,*67
1517364356.48,27766,7.63,73238.8,-13.11,-37.51,-37.21,0,*67
1517364357.73,27767,7.63,73236.5,-13.11,-37.15,-36.91,0,*6C
1517364359.0,27768,7.63,73234.0,-13.11,-37.09,-36.91,0,*6E
1517364360.24,27769,7.63,73240.8,-13.11,-37.03,-36.91,0,*65
1517364361.48,27770,7.63,73236.8,-13.07,-37.03,-36.91,0,*6A
1517364362.7,27771,7.63,73238.0,-13.07,-37.15,-37.03,0,*66
1517364363.95,27772,7.63,73230.3,-13.11,-37.21,-36.97,0,*69
1517364365.19,27773,7.63,73230.5,-13.07,-37.27,-37.09,0,*6F
1517364366.44,27774,7.63,73230.8,-13.11,-37.21,-37.15,0,*64
1517364367.69,27775,7.63,73224.5,-13.11,-37.39,-37.15,0,*6C
1517364368.91,27776,7.63,73222.8,-13.07,-36.85,-36.73,0,*6F
1517364370.15,27777,7.63,73222.8,-13.11,-37.15,-37.09,0,*6D
1517364371.39,27778,7.63,73222.3,-13.07,-37.33,-37.09,0,*61
1517364372.63,27779,7.63,73220.8,-13.07,-37.15,-37.09,0,*64
1517364373.85,27780,7.63,73226.8,-13.11,-37.33,-37.15,0,*6C
1517364375.08,27781,7.63,73230.3,-13.11,-37.33,-37.15,0,*6D
1517364376.32,27782,7.63,73226.3,-13.11,-37.09,-36.97,0,*6C
1517364377.59,27783,7.63,73238.0,-13.11,-37.09,-36.91,0,*6B
1517364378.86,27784,7.63,73238.0,-13.11,-37.09,-36.91,0,*6C
1517364380.14,27785,7.63,73230.8,-13.11,-37.21,-37.09,0,*67
1517364381.42,27786,7.63,73236.8,-13.11,-37.21,-37.09,0,*64
1517364382.66,27787,7.63,73238.8,-13.13,-37.27,-37.15,0,*6C
1517364383.9,27788,7.63,73240.0,-13.07,-37.33,-37.09,0,*6E
1517364385.18,27789,7.63,73242.3,-13.11,-37.21,-37.09,0,*6B
1517364386.43,27790,7.63,73248.0,-13.11,-37.09,-36.97,0,*6F
1517364387.7,27791,7.63,73240.0,-13.11,-37.21,-37.09,0,*62
1517364388.96,27792,7.63,73246.8,-13.11,-37.21,-37.15,0,*6C
1517364390.21,27793,7.63,73250.3,-13.11,-37.21,-37.15,0,*6D
1517364391.46,27794,7.63,73250.0,-13.11,-37.09,-36.97,0,*6B
1517364392.68,27795,7.63,73244.8,-13.07,-36.85,-36.73,0,*62
1517364393.9,27796,7.63,73248.3,-13.11,-37.15,-36.97,0,*64
1517364395.17,27797,7.63,73252.5,-13.11,-37.21,-37.09,0,*64
1517364396.4,27798,7.63,73254.0,-13.11,-37.15,-37.15,0,*61
1517364397.64,27799,7.63,73248.5,-13.11,-36.97,-36.91,0,*66
1517364398.91,27800,7.63,73240.0,-13.07,-36.91,-36.91,0,*68
1517364400.18,27801,7.63,73236.5,-13.11,-37.09,-36.91,0,*6E
1517364401.43,27802,7.63,73238.0,-13.11,-36.97,-36.91,0,*6B
1517364402.67,27803,7.63,73246.0,-13.11,-37.09,-36.97,0,*6A
1517364403.97,27804,7.63,73240.5,-13.13,-37.39,-37.21,0,*60
1517364405.19,27805,7.63,73242.5,-13.11,-37.33,-37.15,0,*6E
1517364406.44,27806,7.63,73242.5,-13.11,-36.73,-36.61,0,*6A
1517364407.68,27807,7.63,73244.0,-13.11,-37.09,-36.97,0,*6E
1517364408.93,27808,7.63,73244.0,-13.13,-37.15,-37.15,0,*65
1517364410.18,27809,7.63,73248.8,-13.11,-37.15,-37.09,0,*6B
1517364411.46,27810,7.63,73250.0,-13.13,-37.21,-37.15,0,*6B
1517364412.73,27811,7.63,73246.3,-13.13,-37.21,-37.03,0,*6D
1517364413.97,27812,7.63,73250.3,-13.13,-36.85,-36.97,0,*6D
1517364415.22,27813,7.63,73248.3,-13.13,-36.97,-36.85,0,*6C
1517364416.46,27814,7.63,73248.3,-13.13,-37.03,-37.03,0,*68
1517364417.74,27815,7.63,73248.5,-13.13,-37.21,-37.15,0,*6E
1517364418.98,27816,7.63,73246.3,-13.13,-37.15,-37.03,0,*6D
1517364420.22,27817,7.63,73250.8,-13.13,-37.03,-36.97,0,*67
1517364421.5,27818,7.63,73258.5,-13.13,-37.21,-37.15,0,*63
1517364422.78,27819,7.63,73260.0,-13.13,-37.21,-37.03,0,*65
1517364424.08,27820,7.63,73264.5,-13.13,-37.21,-37.21,0,*6F
1517364425.3,27821,7.63,73268.8,-13.15,-36.97,-36.97,0,*68
1517364426.51,27822,7.63,73266.0,-13.15,-37.03,-36.97,0,*67
1517364427.79,27823,7.63,73264.5,-13.13,-37.21,-37.03,0,*6C
1517364429.06,27824,7.63,73268.3,-13.11,-37.09,-37.09,0,*69
1517364430.33,27825,7.63,73272.3,-13.13,-37.27,-37.21,0,*6C
1517364431.58,27826,7.63,73266.3,-13.13,-37.27,-37.15,0,*68
1517364432.85,27827,7.63,73268.8,-13.13,-37.21,-37.03,0,*68
1517364434.12,27828,7.63,73272.0,-13.13,-37.39,-37.15,0,*69
1517364435.37,27829,7.63,73274.8,-13.13,-37.15,-37.15,0,*66
1517364436.65,27830,7.63,73268.5,-13.13,-37.21,-37.15,0,*69
1517364437.89,27831,7.63,73268.0,-13.13,-37.15,-37.15,0,*6F
1517364439.14,27832,7.63,73270.8,-13.13,-37.15,-37.15,0,*6C
1517364440.36,27833,7.63,73268.5,-13.15,-37.15,-37.15,0,*6B
1517364441.6,27834,7.63,73266.3,-13.13,-36.97,-36.85,0,*69
1517364442.85,27835,7.63,73268.5,-13.13,-36.97,-37.03,0,*67
1517364444.09,27836,7.63,73270.3,-13.13,-37.03,-37.03,0,*68
1517364445.31,27837,7.63,73270.5,-13.15,-37.03,-36.97,0,*63
1517364446.56,27838,7.63,73268.5,-13.13,-36.67,-36.67,0,*66
1517364447.83,27839,7.63,73256.3,-13.13,-36.67,-36.49,0,*6B
1517364449.05,27840,7.63,73268.0,-13.15,-36.67,-36.67,0,*6F
1517364450.32,27841,7.63,73278.3,-13.15,-36.61,-36.61,0,*6E
1517364451.57,27842,7.63,73266.8,-13.13,-36.07,-35.89,0,*6E
1517364452.79,27843,7.63,73248.3,-13.07,-35.71,-35.71,0,*6F
1517364454.0,27844,7.63,73222.0,-13.11,-36.19,-36.07,0,*60
1517364455.23,27845,7.63,73250.5,-13.07,-36.67,-36.55,0,*68
1517364456.5,27846,7.63,73238.0,-13.11,-36.61,-36.61,0,*6D
1517364457.76,27847,7.63,73230.5,-13.03,-36.61,-36.49,0,*65
1517364459.01,27848,7.63,73248.5,-13.11,-36.79,-36.73,0,*69
1517364460.23,27849,7.63,73252.8,-13.07,-36.67,-36.67,0,*65
1517364461.45,27850,7.63,73256.5,-13.07,-36.73,-36.67,0,*68
1517364462.69,27851,7.63,73260.8,-13.03,-36.85,-36.79,0,*6B
1517364463.95,27852,7.63,73266.5,-13.03,-36.79,-36.79,0,*6B
1517364465.17,27853,7.63,73270.5,-13.03,-36.97,-36.85,0,*69
1517364466.41,27854,7.63,73270.8,-13.03,-37.09,-36.97,0,*6B
1517364467.66,27855,7.63,73266.5,-13.03,-37.09,-37.03,0,*66
1517364468.88,27856,7.63,73262.0,-13.03,-37.03,-37.03,0,*6F
1517364470.1,27857,7.63,73268.3,-13.11,-37.15,-37.15,0,*6D
1517364471.37,27858,7.63,73260.5,-13.11,-37.09,-37.09,0,*62
1517364472.59,27859,7.63,73266.5,-13.07,-37.15,-37.03,0,*63
1517364473.8,27860,7.63,73268.3,-13.07,-37.03,-37.03,0,*6E
1517364475.02,27861,7.63,73268.0,-13.07,-36.73,-36.67,0,*6A
1517364476.28,27862,7.63,73254.0,-13.07,-36.61,-36.37,0,*6F
1517364477.54,27863,7.63,73252.5,-13.11,-36.61,-36.55,0,*6D
1517364478.76,27864,7.63,73258.8,-13.07,-36.55,-36.55,0,*6A
1517364480.0,27865,7.63,73250.0,-13.07,-36.55,-36.49,0,*66
1517364481.24,27866,7.63,73272.0,-13.03,-36.43,-36.13,0,*69
1517364482.49,27867,7.63,73260.3,-13.03,-36.49,-36.31,0,*62
1517364483.73,27868,7.63,73268.8,-13.03,-36.43,-36.13,0,*67
1517364484.97,27869,7.63,73268.3,-13.03,-36.67,-36.61,0,*65
1517364486.24,27870,7.63,73266.5,-13.03,-36.61,-36.49,0,*61
1517364487.54,27871,7.63,73250.3,-13.01,-36.49,-36.25,0,*62
1517364488.8,27872,7.63,73240.0,-13.03,-36.61,-36.61,0,*69
1517364490.07,27873,7.63,73238.3,-13.01,-36.67,-36.49,0,*66
1517364491.31,27874,7.63,73224.0,-13.01,-36.85,-36.85,0,*6D
1517364492.53,27875,7.63,73226.8,-13.03,-36.97,-36.85,0,*6D
1517364493.79,27876,7.63,73262.5,-13.01,-36.61,-36.31,0,*6A
1517364495.06,27877,7.63,73260.3,-13.03,-36.61,-36.61,0,*6C
1517364496.33,27878,7.63,73258.8,-13.01,-36.43,-36.25,0,*61
1517364497.63,27879,7.63,73222.3,-12.99,-36.25,-36.13,0,*65
1517364498.92,27880,7.63,73236.3,-12.99,-36.49,-36.49,0,*66